FW8685 Weather Reports


time (UTC)temp
C
wind
direction
speed
KPH
gust
KPH
rain 1hr
cm
rain 24hr
cm
rain mn
cm
humidity
%
barometer
mb
20260507090521 8 0 0.0 0.0 0.00 0.00 0.00 75 1015.6
20260507090037 8 0 0.0 0.0 0.00 0.00 0.00 76 1015.6
20260507085520 8 0 0.0 0.0 0.00 0.00 0.00 76 1015.6
20260507085021 9 0 0.0 0.0 0.00 0.00 0.00 77 1015.6
20260507084539 9 0 0.0 4.8 0.00 0.00 0.00 77 1015.8
20260507084020 9 0 0.0 4.8 0.00 0.00 0.00 77 1015.9
20260507083522 8 290 1.6 4.8 0.00 0.00 0.00 77 1016.0
20260507083038 8 296 1.6 6.4 0.00 0.00 0.00 77 1015.9
20260507082556 8 294 0.0 6.4 0.00 0.00 0.00 78 1015.8
20260507082023 8 0 1.6 6.4 0.00 0.00 0.00 78 1015.9
20260507081536 8 257 3.2 8.0 0.00 0.00 0.00 79 1015.9
20260507081021 8 247 4.8 9.7 0.00 0.00 0.00 79 1016.0
20260507080521 8 245 4.8 9.7 0.00 0.00 0.00 79 1016.0
20260507080038 8 238 4.8 9.7 0.00 0.00 0.00 80 1016.0
20260507075522 8 259 3.2 9.7 0.00 0.00 0.00 81 1016.1
20260507075021 8 267 1.6 4.8 0.00 0.00 0.00 81 1016.1
20260507074545 8 0 1.6 11.3 0.00 0.00 0.00 82 1016.1
20260507074021 8 290 3.2 11.3 0.00 0.00 0.00 82 1016.1
20260507073520 8 273 0.0 0.0 0.00 0.00 0.00 83 1016.2
20260507073043 8 0 0.0 0.0 0.00 0.00 0.00 83 1016.1
20260507072521 8 0 0.0 0.0 0.00 0.00 0.00 84 1016.1
20260507072020 8 0 0.0 0.0 0.00 0.00 0.00 84 1016.1
20260507071538 8 0 0.0 0.0 0.00 0.00 0.00 84 1016.1
20260507071021 8 0 0.0 0.0 0.00 0.00 0.00 84 1016.2
20260507070520 8 0 0.0 0.0 0.00 0.00 0.00 85 1016.2
20260507070041 8 0 0.0 0.0 0.00 0.00 0.00 85 1016.4
20260507065521 8 0 0.0 0.0 0.00 0.00 0.00 85 1016.4
20260507065021 8 0 0.0 0.0 0.00 0.00 0.00 85 1016.5
20260507064537 8 0 0.0 0.0 0.00 0.00 0.00 85 1016.5
20260507064022 8 0 0.0 0.0 0.00 0.00 0.00 85 1016.4
20260507063522 8 0 0.0 0.0 0.00 0.00 0.00 85 1016.5
20260507063051 8 0 0.0 0.0 0.00 0.00 0.00 85 1016.3
20260507062521 8 0 0.0 0.0 0.00 0.00 0.00 85 1016.4
20260507062021 8 0 0.0 0.0 0.00 0.00 0.00 85 1016.5
20260507061546 8 0 0.0 0.0 0.00 0.00 0.00 85 1016.3
20260507061020 8 0 0.0 0.0 0.00 0.00 0.00 84 1016.4
20260507060520 8 0 0.0 0.0 0.00 0.00 0.00 83 1016.6
20260507060045 8 0 0.0 0.0 0.00 0.00 0.00 83 1016.7
20260507055521 8 0 0.0 0.0 0.00 0.00 0.00 82 1016.7
20260507055020 8 0 0.0 0.0 0.00 0.00 0.00 82 1016.7
20260507054542 8 0 0.0 0.0 0.00 0.00 0.00 81 1016.7
20260507054020 8 0 0.0 0.0 0.00 0.00 0.00 80 1016.7
20260507053522 8 0 0.0 0.0 0.00 0.00 0.00 79 1016.7
20260507053039 8 0 0.0 0.0 0.00 0.00 0.00 79 1016.7
20260507052521 8 0 0.0 0.0 0.00 0.00 0.00 78 1016.8
20260507052112 8 0 0.0 0.0 0.00 0.00 0.00 78 1016.7
20260507051537 8 0 0.0 0.0 0.00 0.00 0.00 77 1016.6
20260507051021 8 0 0.0 0.0 0.00 0.00 0.00 77 1016.6
20260507050521 8 0 0.0 0.0 0.00 0.00 0.00 76 1016.5
20260507050037 8 0 0.0 0.0 0.00 0.00 0.00 73 1016.6
20260507045521 8 0 0.0 0.0 0.00 0.00 0.00 73 1016.6
20260507045021 8 0 0.0 0.0 0.00 0.00 0.00 73 1016.5
20260507044542 9 0 0.0 0.0 0.00 0.00 0.00 73 1016.6
20260507044020 9 0 0.0 0.0 0.00 0.00 0.00 74 1016.5
20260507043521 9 0 0.0 0.0 0.00 0.00 0.00 74 1016.5
20260507043039 10 0 0.0 0.0 0.00 0.00 0.00 73 1016.4
20260507042522 10 0 0.0 0.0 0.00 0.00 0.00 73 1016.4
20260507042020 10 0 0.0 0.0 0.00 0.00 0.00 72 1016.4
20260507041538 10 0 0.0 0.0 0.00 0.00 0.00 71 1016.5
20260507041021 10 0 0.0 0.0 0.00 0.00 0.00 70 1016.6
20260507040523 10 0 0.0 0.0 0.00 0.00 0.00 70 1016.5
20260507040037 10 0 0.0 0.0 0.00 0.00 0.00 68 1016.7
20260507035521 10 0 0.0 0.0 0.00 0.00 0.00 69 1016.7
20260507035023 11 0 0.0 0.0 0.00 0.00 0.00 68 1016.7
20260507034540 11 0 0.0 0.0 0.00 0.00 0.00 67 1016.6
20260507034022 11 0 0.0 0.0 0.00 0.00 0.00 67 1016.5
20260507033524 11 0 0.0 0.0 0.00 0.00 0.00 67 1016.6
20260507033035 11 0 0.0 0.0 0.00 0.00 0.00 67 1016.7
20260507032522 11 0 0.0 0.0 0.00 0.00 0.00 67 1016.5
20260507032021 11 0 0.0 0.0 0.00 0.00 0.00 66 1016.5
20260507031539 11 0 0.0 0.0 0.00 0.00 0.00 66 1016.5
20260507031022 11 0 0.0 0.0 0.00 0.00 0.00 66 1016.4
20260507030521 11 0 0.0 0.0 0.00 0.00 0.00 66 1016.4
20260507030042 11 0 0.0 0.0 0.00 0.00 0.00 65 1016.4
20260507025523 11 0 0.0 0.0 0.00 0.00 0.00 65 1016.3
20260507025021 11 0 0.0 0.0 0.00 0.00 0.00 66 1016.4
20260507024538 11 0 0.0 0.0 0.00 0.00 0.00 65 1016.4
20260507024024 11 0 0.0 1.6 0.00 0.00 0.00 65 1016.3
20260507023521 12 0 0.0 3.2 0.00 0.00 0.00 63 1016.2
20260507023037 12 0 0.0 3.2 0.00 0.00 0.00 62 1016.3
20260507022521 12 0 0.0 4.8 0.00 0.00 0.00 62 1016.3
20260507022023 12 360 1.6 4.8 0.00 0.00 0.00 62 1016.2
20260507021538 12 360 1.6 4.8 0.00 0.00 0.00 61 1016.1
20260507021021 12 339 1.6 4.8 0.00 0.00 0.00 60 1016.0
20260507020545 12 9 1.6 4.8 0.00 0.00 0.00 59 1015.9
20260507020043 12 9 1.6 4.8 0.00 0.00 0.00 59 1015.6
20260507015521 12 5 1.6 4.8 0.00 0.00 0.00 58 1015.6
20260507015021 12 5 1.6 3.2 0.00 0.00 0.00 58 1015.6
20260507014547 12 5 1.6 3.2 0.00 0.00 0.00 58 1015.5
20260507014021 12 5 1.6 4.8 0.00 0.00 0.00 57 1015.5
20260507013521 12 9 1.6 4.8 0.00 0.00 0.00 57 1015.4
20260507013048 13 9 1.6 6.4 0.00 0.00 0.00 57 1015.5
20260507012520 13 5 1.6 6.4 0.00 0.00 0.00 56 1015.4
20260507012021 13 5 3.2 6.4 0.00 0.00 0.00 56 1015.4
20260507011537 13 9 1.6 4.8 0.00 0.00 0.00 56 1015.2
20260507011021 13 19 3.2 4.8 0.00 0.00 0.00 56 1015.2
20260507010523 13 40 1.6 4.8 0.00 0.00 0.00 56 1015.3
20260507010051 13 0 0.0 6.4 0.00 0.00 0.00 55 1015.2
20260507005521 13 40 3.2 8.0 0.00 0.00 0.00 55 1015.2
20260507005020 13 42 4.8 12.9 0.00 0.00 0.00 54 1015.3
20260507004537 13 37 6.4 12.9 0.00 0.00 0.00 54 1015.3
20260507004021 13 32 8.0 14.5 0.00 0.00 0.00 53 1015.2
20260507003520 14 25 6.4 17.7 0.00 0.00 0.00 53 1015.2
20260507003039 14 50 8.0 17.7 0.00 0.00 0.00 51 1015.2
20260507002522 14 34 9.7 17.7 0.00 0.00 0.00 50 1015.2
20260507002021 15 65 11.3 16.1 0.00 0.00 0.00 49 1015.2
20260507001539 14 49 9.7 19.3 0.00 0.00 0.00 50 1015.2
20260507001023 14 41 8.0 20.9 0.00 0.00 0.00 51 1015.2
20260507000521 14 42 16.1 24.1 0.00 0.00 0.00 50 1015.1
20260507000039 15 32 16.1 24.1 0.00 0.00 0.00 49 1015.1
20260506235521 15 31 14.5 24.1 0.00 0.00 0.00 48 1015.0
20260506235020 15 31 11.3 24.1 0.00 0.00 0.00 46 1014.9
20260506234539 15 41 12.9 24.1 0.00 0.00 0.00 46 1014.8
20260506234021 15 360 9.7 19.3 0.00 0.00 0.00 48 1014.8
20260506233523 15 28 6.4 14.5 0.00 0.00 0.00 48 1014.8
20260506233054 15 5 8.0 17.7 0.00 0.00 0.00 48 1014.7
20260506232521 15 13 8.0 17.7 0.00 0.00 0.00 47 1014.7
20260506232021 15 360 12.9 22.5 0.00 0.00 0.00 48 1014.7
20260506231540 15 32 14.5 22.5 0.00 0.00 0.00 46 1014.8
20260506231022 15 48 12.9 25.7 0.00 0.00 0.00 45 1014.8
20260506230520 16 25 12.9 25.7 0.00 0.00 0.00 44 1014.8
20260506230036 16 25 11.3 24.1 0.00 0.00 0.00 45 1014.8
20260506225521 16 23 9.7 29.0 0.00 0.00 0.00 45 1014.8
20260506225021 16 22 6.4 29.0 0.00 0.00 0.00 42 1014.7
20260506224540 16 66 17.7 29.0 0.00 0.00 0.00 44 1014.6
20260506224022 16 54 16.1 25.7 0.00 0.00 0.00 44 1014.5
20260506223520 16 38 9.7 22.5 0.00 0.00 0.00 44 1014.4
20260506223038 16 56 16.1 27.4 0.00 0.00 0.00 44 1014.5
20260506222521 16 26 17.7 27.4 0.00 0.00 0.00 43 1014.5
20260506222025 16 41 14.5 22.5 0.00 0.00 0.00 45 1014.5
20260506221539 15 9 9.7 20.9 0.00 0.00 0.00 45 1014.5
20260506221022 15 17 9.7 20.9 0.00 0.00 0.00 42 1014.5
20260506220521 16 60 8.0 25.7 0.00 0.00 0.00 43 1014.5
20260506220036 16 71 11.3 27.4 0.00 0.00 0.00 42 1014.6
20260506215522 17 38 20.9 29.0 0.00 0.00 0.00 42 1014.7
20260506215021 17 53 16.1 29.0 0.00 0.00 0.00 46 1014.7
20260506214537 16 20 9.7 27.4 0.00 0.00 0.00 41 1014.7
20260506214023 17 77 12.9 27.4 0.00 0.00 0.00 42 1014.6
20260506213520 17 65 17.7 25.7 0.00 0.00 0.00 46 1014.7
20260506213036 16 344 11.3 22.5 0.00 0.00 0.00 43 1014.8
20260506212521 16 64 11.3 24.1 0.00 0.00 0.00 44 1014.7
20260506212021 16 323 12.9 24.1 0.00 0.00 0.00 42 1014.7
20260506211539 16 44 12.9 27.4 0.00 0.00 0.00 42 1014.8
20260506211021 16 360 8.0 27.4 0.00 0.00 0.00 42 1014.9
20260506210526 16 36 17.7 27.4 0.00 0.00 0.00 42 1014.9
20260506210038 16 5 17.7 32.2 0.00 0.00 0.00 41 1014.9
20260506205521 16 24 12.9 32.2 0.00 0.00 0.00 38 1015.0
20260506205024 16 67 20.9 32.2 0.00 0.00 0.00 43 1015.1
20260506204539 16 14 12.9 25.7 0.00 0.00 0.00 43 1015.2
20260506204025 16 26 14.5 25.7 0.00 0.00 0.00 43 1015.3
20260506203521 16 40 17.7 27.4 0.00 0.00 0.00 42 1015.3
20260506203037 16 55 9.7 27.4 0.00 0.00 0.00 44 1015.4
20260506202521 16 51 11.3 27.4 0.00 0.00 0.00 41 1015.5
20260506202021 16 32 12.9 25.7 0.00 0.00 0.00 41 1015.6
20260506201540 16 318 12.9 29.0 0.00 0.00 0.00 41 1015.5
20260506201024 16 45 16.1 29.0 0.00 0.00 0.00 41 1015.7
20260506200522 16 41 17.7 27.4 0.00 0.00 0.00 42 1015.7
20260506200042 16 36 11.3 24.1 0.00 0.00 0.00 44 1015.8
20260506195521 16 76 9.7 32.2 0.00 0.00 0.00 43 1015.8
20260506195022 16 53 19.3 32.2 0.00 0.00 0.00 44 1016.0
20260506194544 16 352 8.0 24.1 0.00 0.00 0.00 44 1015.9
20260506194022 16 49 14.5 29.0 0.00 0.00 0.00 44 1016.0
20260506193521 16 100 16.1 30.6 0.00 0.00 0.00 40 1016.0
20260506193034 16 55 17.7 30.6 0.00 0.00 0.00 44 1015.9
20260506192524 16 327 19.3 30.6 0.00 0.00 0.00 44 1015.8
20260506192021 16 44 17.7 32.2 0.00 0.00 0.00 43 1015.9
20260506191539 16 57 19.3 32.2 0.00 0.00 0.00 42 1015.9
20260506191022 16 70 14.5 32.2 0.00 0.00 0.00 41 1016.0
20260506190525 16 56 16.1 32.2 0.00 0.00 0.00 42 1016.0
20260506190037 16 50 22.5 32.2 0.00 0.00 0.00 44 1016.1
20260506185521 16 69 16.1 33.8 0.00 0.00 0.00 49 1015.9
20260506185022 16 63 17.7 33.8 0.00 0.00 0.00 43 1016.0
20260506184537 16 59 16.1 32.2 0.00 0.00 0.00 48 1016.1
20260506184021 15 59 22.5 32.2 0.00 0.00 0.00 44 1016.2
20260506183521 15 76 17.7 35.4 0.00 0.00 0.00 47 1016.2
20260506183039 15 34 24.1 35.4 0.00 0.00 0.00 43 1016.4
20260506182520 15 32 17.7 37.0 0.00 0.00 0.00 46 1016.4
20260506182020 15 53 17.7 37.0 0.00 0.00 0.00 45 1016.5
20260506181537 15 36 22.5 33.8 0.00 0.00 0.00 43 1016.5
20260506181023 15 15 17.7 38.6 0.00 0.00 0.00 44 1016.6
20260506180522 15 63 20.9 38.6 0.00 0.00 0.00 48 1016.7
20260506180042 15 53 19.3 38.6 0.00 0.00 0.00 46 1016.8
20260506175523 15 39 22.5 35.4 0.00 0.00 0.00 46 1016.7
20260506175021 15 46 22.5 35.4 0.00 0.00 0.00 48 1016.8
20260506174537 15 43 17.7 33.8 0.00 0.00 0.00 50 1017.0
20260506174021 15 55 20.9 33.8 0.00 0.00 0.00 50 1017.2
20260506173521 15 16 22.5 33.8 0.00 0.00 0.00 50 1017.0
20260506173044 15 32 17.7 29.0 0.00 0.00 0.00 51 1016.9
20260506172521 14 35 16.1 30.6 0.00 0.00 0.00 53 1016.9
20260506172021 14 21 14.5 30.6 0.00 0.00 0.00 54 1017.0
20260506171540 13 46 17.7 30.6 0.00 0.00 0.00 54 1016.9
20260506171023 13 23 19.3 32.2 0.00 0.00 0.00 56 1017.0
20260506170521 13 36 20.9 32.2 0.00 0.00 0.00 58 1017.0
20260506170036 13 329 17.7 35.4 0.00 0.00 0.00 58 1017.0
20260506165522 13 342 17.7 35.4 0.00 0.00 0.00 58 1017.1
20260506165021 13 55 17.7 30.6 0.00 0.00 0.00 59 1017.1
20260506164552 13 24 19.3 29.0 0.00 0.00 0.00 58 1017.1
20260506164022 13 18 16.1 29.0 0.00 0.00 0.00 60 1017.0
20260506163521 13 55 17.7 29.0 0.00 0.00 0.00 58 1016.7
20260506163042 13 14 14.5 29.0 0.00 0.00 0.00 62 1016.9
20260506162521 12 57 19.3 33.8 0.00 0.00 0.00 63 1017.0
20260506162021 12 49 16.1 35.4 0.00 0.00 0.00 65 1017.0
20260506161538 12 32 19.3 35.4 0.00 0.00 0.00 65 1016.7
20260506161022 12 355 16.1 27.4 0.00 0.00 0.00 65 1017.1
20260506160524 12 24 17.7 29.0 0.00 0.00 0.00 68 1017.0
20260506160046 11 9 19.3 29.0 0.00 0.00 0.00 70 1017.2
20260506155524 11 28 19.3 29.0 0.00 0.00 0.00 69 1017.0
20260506155021 11 11 14.5 27.4 0.00 0.00 0.00 71 1016.9
20260506154548 11 15 19.3 29.0 0.00 0.00 0.00 70 1016.9
20260506154021 11 38 19.3 29.0 0.00 0.00 0.00 69 1017.0
20260506153523 11 360 12.9 30.6 0.00 0.00 0.00 72 1016.8
20260506153038 11 5 16.1 30.6 0.00 0.00 0.00 69 1016.7
20260506152522 11 360 17.7 30.6 0.00 0.00 0.00 71 1016.7
20260506152023 11 44 22.5 29.0 0.00 0.00 0.00 69 1016.7
20260506151539 11 30 19.3 29.0 0.00 0.00 0.00 70 1016.9
20260506151021 11 35 17.7 30.6 0.00 0.00 0.00 73 1016.9
20260506150522 11 35 16.1 30.6 0.00 0.00 0.00 75 1016.8
20260506150038 10 10 12.9 22.5 0.00 0.00 0.00 76 1016.7
20260506145524 10 41 12.9 20.9 0.00 0.00 0.00 75 1016.5
20260506145022 10 5 8.0 22.5 0.00 0.00 0.00 75 1016.7
20260506144537 10 11 12.9 22.5 0.00 0.00 0.00 75 1016.8
20260506144023 10 31 8.0 22.5 0.00 0.00 0.00 79 1016.5
20260506143521 10 12 12.9 22.5 0.00 0.00 0.00 77 1016.4
20260506143038 9 16 11.3 22.5 0.00 0.00 0.00 77 1016.3
20260506142526 10 13 11.3 22.5 0.00 0.00 0.00 76 1016.7
20260506142022 10 346 12.9 24.1 0.00 0.00 0.00 76 1016.6
20260506141554 10 40 16.1 24.1 0.00 0.00 0.00 76 1016.5
20260506141022 10 22 16.1 22.5 0.00 0.00 0.00 78 1016.3
20260506140522 9 360 11.3 19.3 0.00 0.00 0.00 79 1016.2
20260506140040 9 32 11.3 19.3 0.00 0.00 0.00 80 1016.4
20260506135521 9 26 11.3 17.7 0.00 0.00 0.00 83 1016.1
20260506135021 8 348 9.7 16.1 0.00 0.00 0.00 86 1016.2
20260506134537 8 9 6.4 16.1 0.00 0.00 0.00 86 1016.1
20260506134021 7 37 11.3 16.1 0.00 0.00 0.00 87 1016.3
20260506133522 7 360 9.7 16.1 0.00 0.00 0.00 87 1016.4
20260506133037 7 27 4.8 16.1 0.00 0.00 0.00 87 1016.4
20260506132521 7 53 4.8 16.1 0.00 0.00 0.00 87 1016.5
20260506132021 7 31 8.0 16.1 0.00 0.00 0.00 88 1016.5
20260506131539 7 5 4.8 14.5 0.00 0.00 0.00 88 1016.4
20260506131021 7 342 3.2 16.1 0.00 0.00 0.00 88 1016.3
20260506130523 7 41 9.7 16.1 0.00 0.00 0.00 89 1016.2
20260506130037 7 37 3.2 14.5 0.00 0.00 0.00 89 1016.1
20260506125521 7 9 8.0 14.5 0.00 0.00 0.00 89 1016.0
20260506125025 6 34 8.0 14.5 0.00 0.00 0.00 89 1015.9
20260506124542 6 31 4.8 12.9 0.00 0.00 0.00 89 1015.8
20260506124021 6 355 4.8 12.9 0.00 0.00 0.00 89 1015.8
20260506123522 6 355 4.8 12.9 0.00 0.00 0.00 88 1015.9
20260506123043 6 42 3.2 14.5 0.00 0.00 0.00 89 1015.7
20260506122521 6 351 8.0 14.5 0.00 0.00 0.00 89 1015.6
20260506122022 6 5 6.4 14.5 0.00 0.00 0.00 89 1015.6
20260506121541 6 9 6.4 11.3 0.00 0.00 0.00 89 1015.3
20260506121021 6 22 3.2 11.3 0.00 0.00 0.00 89 1015.2
20260506120521 6 26 3.2 8.0 0.00 0.00 0.00 89 1015.0
20260506120105 6 49 3.2 8.0 0.00 0.00 0.00 89 1014.9
20260506115521 6 44 4.8 8.0 0.00 0.00 0.00 89 1014.7
20260506115022 6 36 4.8 11.3 0.00 0.00 0.00 89 1014.6
20260506114544 6 40 4.8 11.3 0.00 0.00 0.00 89 1014.4
20260506114022 6 39 4.8 9.7 0.00 0.00 0.00 89 1014.3
20260506113522 6 44 4.8 8.0 0.00 0.00 0.00 89 1014.4
20260506113039 6 46 4.8 11.3 0.00 0.00 0.00 89 1014.3
20260506112523 6 51 4.8 12.9 0.00 0.00 0.00 89 1014.4
20260506112022 6 57 6.4 12.9 0.00 0.00 0.00 89 1013.9
20260506111540 6 24 8.0 12.9 0.00 0.00 0.00 89 1014.1
20260506111022 6 41 6.4 12.9 0.00 0.00 0.00 89 1014.1
20260506110522 6 49 4.8 12.9 0.00 0.00 0.00 89 1014.0
20260506110038 6 53 4.8 12.9 0.00 0.00 0.00 89 1014.1
20260506105522 6 17 4.8 12.9 0.00 0.00 0.00 89 1014.3
20260506105023 6 43 3.2 9.7 0.00 0.00 0.00 88 1014.2
20260506104541 6 21 3.2 11.3 0.00 0.00 0.00 88 1014.1
20260506104022 6 34 6.4 11.3 0.00 0.00 0.00 88 1013.9
20260506103521 6 31 6.4 11.3 0.00 0.00 0.00 88 1013.8
20260506103037 6 46 6.4 11.3 0.00 0.00 0.00 88 1013.7
20260506102522 6 13 6.4 14.5 0.00 0.00 0.00 88 1014.1
20260506102022 6 36 4.8 16.1 0.00 0.00 0.00 88 1013.8
20260506101536 6 36 6.4 16.1 0.00 0.00 0.00 88 1013.6
20260506101023 6 55 9.7 16.1 0.00 0.00 0.00 88 1013.4
20260506100521 6 17 6.4 14.5 0.00 0.00 0.00 88 1013.8
20260506100039 6 44 8.0 16.1 0.00 0.00 0.00 88 1013.6
20260506095522 6 65 9.7 17.7 0.00 0.00 0.00 88 1013.5
20260506095022 6 57 12.9 20.9 0.00 0.00 0.00 88 1013.7
20260506094545 6 26 12.9 20.9 0.00 0.00 0.00 88 1013.8
20260506094022 6 19 11.3 22.5 0.00 0.00 0.00 88 1013.7
20260506093521 6 12 11.3 22.5 0.00 0.00 0.00 87 1013.8
20260506093045 6 45 11.3 22.5 0.00 0.00 0.00 87 1013.3
20260506092521 6 28 11.3 19.3 0.00 0.00 0.00 87 1013.7
20260506092021 6 345 11.3 19.3 0.00 0.00 0.00 87 1013.9
20260506091537 6 68 11.3 17.7 0.00 0.00 0.00 87 1013.6
20260506091024 6 39 8.0 16.1 0.00 0.00 0.00 86 1013.9